sat.trackr.live / text

‹ back to catalog

STARLINK-5203

NORAD 54104 · 2022-136BF

PAYLOAD ACTIVE UNKNOWN

§ Identity

Operator
Country
US
Launch date
2022-10-20
Launch site
AFETR
Launch vehicle
Mass (kg)
RCS (m²)

Purposes: comms

External: N2YO · Heavens-Above · Gunter

§ Orbital elements

Epoch: 2026-09-20T21:40:24.364128Z

Period
94.01 min
Inclination
53.1592°
Eccentricity
0.0001386
Mean motion
15.31697761 rev/d
Perigee alt
469.8 km
Apogee alt
471.7 km
Semi-major
6,848.9 km
B*
2.8477e-5
RAAN
128.2264°
Arg perigee
84.2374°
Mean anomaly
275.8786°
Rev number
21,714

§ Raw data

STARLINK-52031 54104U 22136BF  26263.90305977  .00000518  00000+0  28477-4 0  99922 54104  53.1592 128.2264 0001386  84.2374 275.8786 15.31697761217146

JSON: /api/v1/satellites/54104 · /tle

For live sub-satellite position, see the globe view (requires WebGL).

§ Visibility from observer

Set your observer location to see the next 7 days of passes ≥ 10°. The values pass through the URL so the page stays shareable.

No JS? Fill the form by hand. The geolocation button needs JavaScript.